Location: ?????
(42.2640°N, 43.4211°E)
Time: 01:22:52
(UTC+00:00)

CZ-4B R/B - Pass Details

Date: 07 August 2020
Orbit: 391 x 462 km, 97.6° (Epoch: 23 September)

Event Time Altitude Azimuth Distance (km) Brightness Sun altitude
Rises 00:50:36 0° 143° (SE) 2,424 5.1 -12.8°
Reaches altitude 10° 00:52:49 10° 131° (SE) 1,546 4.3 -12.5°
Maximum altitude 00:55:40 27° 71° (ENE) 857 3.7 -12.1°
Drops below altitude 10° 00:58:29 10° 11° (NNE) 1,523 4.8 -11.6°
Sets 01:00:38 0° 359° (N) 2,379 5.6 -11.3°
